Location: Rio Tanui
(39.9167°N, 8.5167°E)
Time: 16:29:55
(UTC+00:00)

Meteor 2-2 Rocket - Pass Details

Date: 23 June 2024
Orbit: 851 x 928 km, 81.3° (Epoch: 22 July)

Event Time Altitude Azimuth Distance (km) Brightness Sun altitude
Rises 03:10:13 0° 340° (NNW) 3,427 7.7 -8.3°
Reaches altitude 10° 03:12:51 10° 331° (NNW) 2,486 6.8 -7.9°
Maximum altitude 03:17:48 33° 270° (W) 1,403 5.0 -7.1°
Drops below altitude 10° 03:22:45 10° 208° (SSW) 2,486 6.1 -6.4°
Enters shadow 03:24:59 - 199° (SSW) 3,279 6.7 -6.1°
